This is the latest recevied weather packets stored in our database for station/object N8JE-13. If no packets are shown the sender has not sent any weather packets the latest 10 day(s).
| Time | Temp. | Humidity | Pressure | Rain* | Wind** | Luminosity | Snow |
|---|---|---|---|---|---|---|---|
| 1777666552 | 8.89° C | 72% | 1014.7 hPa | 0 mm | - | - | - |
| 1777666251 | 8.89° C | 72% | 1014.7 hPa | 0 mm | - | - | - |
| 1777665951 | 8.89° C | 73% | 1014.7 hPa | 0 mm | - | - | - |
| 1777665651 | 8.89° C | 72% | 1014.7 hPa | 0 mm | - | - | - |
| 1777665351 | 8.89° C | 74% | 1014.7 hPa | 0 mm | - | - | - |
| 1777665051 | 8.33° C | 75% | 1014.8 hPa | 0 mm | - | - | - |
| 1777664751 | 8.33° C | 75% | 1014.7 hPa | 0 mm | - | - | - |
| 1777664451 | 8.33° C | 76% | 1014.8 hPa | 0 mm | - | - | - |
| 1777664150 | 8.33° C | 76% | 1014.8 hPa | 0 mm | - | - | - |
| 1777663852 | 8.33° C | 79% | 1014.7 hPa | 0 mm | - | - | - |
| 1777663552 | 8.33° C | 77% | 1014.6 hPa | 0 mm | - | - | - |
| 1777663252 | 8.33° C | 81% | 1014.5 hPa | 0 mm | - | - | - |
| 1777662952 | 7.78° C | 82% | 1014.5 hPa | 0 mm | - | - | - |
| 1777662652 | 7.22° C | 82% | 1014.6 hPa | 0 mm | - | - | - |
| 1777662351 | 7.22° C | 82% | 1014.5 hPa | 0 mm | - | - | - |
| 1777662051 | 7.22° C | 83% | 1014.4 hPa | 0 mm | - | - | - |
| 1777661751 | 7.22° C | 82% | 1014.5 hPa | 0 mm | - | - | - |
| 1777661451 | 7.78° C | 82% | 1014.5 hPa | 0 mm | - | - | - |
| 1777661151 | 7.78° C | 82% | 1014.4 hPa | 0 mm | - | - | - |
| 1777660850 | 7.78° C | 83% | 1014.3 hPa | 0 mm | - | - | - |
| 1777660552 | 7.22° C | 83% | 1014.4 hPa | 0 mm | - | - | - |
| 1777660252 | 7.22° C | 82% | 1014.2 hPa | 0 mm | - | - | - |
| 1777659952 | 7.22° C | 84% | 1014.1 hPa | 0 mm | - | - | - |
| 1777659652 | 7.22° C | 84% | 1014 hPa | 0 mm | - | - | - |
| 1777659352 | 6.67° C | 84% | 1013.9 hPa | 0 mm | - | - | - |
* Rain latest hour (hover to see other rain measurements)
** Current wind speed in m/s (hover to see current wind gust speed)